Regional Weather Roundup
Issued by NWS Charleston, SC

Current Version | Previous Version | Graphics & Text | Print | Product List | Glossary On
Versions: 1 2 3 4 5 6 7 8 9 10 11 12 13 14 15 16 17 18 19 20 21 22 23 24 25 26 27 28 29 30 31 32 33 34 35 36 37 38 39 40 41 42 43 44 45 46 47 48 49 50
000 ASUS42 KCHS 180512 RWRCHS REGIONAL WEATHER ROUNDUP NATIONAL WEATHER SERVICE CHARLESTON SC 100 AM EDT FRI AUG 18 2017 NOTE: "FAIR" INDICATES FEW OR NO CLOUDS BELOW 12,000 FEET WITH NO SIGNIFICANT WEATHER AND/OR OBSTRUCTIONS TO VISIBILITY. NOT ALL STATIONS ARE QUALITY CONTROLLED. USE DATA WITH CAUTION... ESPECIALLY DEWPOINT OBSERVATIONS. SCZ027-030-031-034>040-042>050-180600- ...SOUTHEAST SOUTH CAROLINA... CITY SKY/WX TMP DP RH WIND PRES REMARKS N CHARLESTON PTCLDY 82 79 90 SW6 29.98S HX 92 WATERFRONT PRK N/A N/A N/A N/A SW5 29.82F JOHNS ISLAND FAIR 84 81 89 SW6 29.98F HX 98 PINOPOLIS N/A 82 79 89 SW6 29.92R HX 93 MONCKS CORNER FAIR 79 77 94 S3 29.98S SUMMERVILLE FAIR 79 77 94 CALM 29.99F BEAUFORT MCAS CLEAR 82 79 90 SW5 29.98F HX 92 BEAUFORT ARPT FAIR 82 77 83 SW3 29.98F HX 91 HILTON HEAD IS CLEAR 84 79 84 SW8 30.00F HX 96 WALTERBORO PTCLDY 81 77 89 SW6 29.99F ALLENDALE NOT AVBL ...SOUTHERN MIDLANDS AND PEE DEE... CITY SKY/WX TMP DP RH WIND PRES REMARKS GEORGETOWN FAIR 79 79 100 CALM 29.99S KINGSTREE FAIR 77 73 88 SE3 29.97F ORANGEBURG CLEAR 79 76 90 CALM 29.98S BARNWELL FAIR 81 77 89 CALM 29.98S AIKEN FAIR 77 73 88 SW3 30.02S MANNING FAIR 82 77 83 MISG 29.97F HX 91 COLUMBIA CLEAR 81 76 84 CALM 29.95F SUMTER CLEAR 81 74 81 S6 29.94F FLORENCE CLEAR 78 77 96 S6 29.97F MYRTLE BEACH NOT AVBL N MYRTLE BEACH CLEAR 82 80 94 S7 29.98S HX 94 $$ GAZ063-065-086>088-099>101-113>116-118-119-134>141-150-180600- ...SOUTHEAST GEORGIA... CITY SKY/WX TMP DP RH WIND PRES REMARKS SAVANNAH ARPT MOCLDY 81 75 82 S6 30.00F HUNTER AAF NOT AVBL FORT STEWART CLEAR 79 75 87 CALM 29.98F STATESBORO CLEAR 80 74 81 SW5 30.00S SYLVANIA CLEAR 81 78 91 CALM 30.00F CLAXTON FAIR 81 77 87 CALM 30.00S ...CSRA...CENTRAL AND FAR SOUTHEAST GEORGIA... CITY SKY/WX TMP DP RH WIND PRES REMARKS THOMSON CLEAR 77 74 93 CALM 30.04S AUGUSTA-BUSH CLEAR 80 76 87 CALM 29.97F AUGUSTA-DANIEL CLEAR 83 72 69 W3 29.99F SWAINSBORO FAIR 81 77 89 CALM 30.01S VIDALIA CLEAR 81 75 83 S5 30.01R EASTMAN FAIR 78 78 100 CALM 30.03S HAZLEHURST FAIR 81 71 71 S3 30.01R ALMA CLEAR 78 75 90 CALM 30.01F WAYCROSS PTCLDY 78 75 90 CALM 30.01F JESUP FAIR 79 73 83 CALM 30.01F BAXLEY FAIR 77 77 100 CALM 30.00F BRUNSWICK PTCLDY 79 73 83 CALM 30.02S SAINT SIMONS PTCLDY 82 77 84 SW7 30.01F HX 90 $$ SCZ027-028-034-036>038-045-046-048>050-GAZ119-141-180600- ...LAKE AND SUPPLEMENTAL COASTAL OBSERVATIONS... STATION/POSITION TIME TEMP WIND PRES WAVE SWELL AIR SEA DIR/SP/G HT/PER HT/PER/DIR (UTC) (F) (DEG/KT/KT) (MB) (FT/S) (FT/S/D) WINYAH BAY 0345 81 CALM 1015.0 LAKE MURRAY 0420 85 250/ 6/ 7 1013.9S ACE BASIN NERRS 0345 82 CALM 1016.0 FORT PULASKI 0442 82 86 250/ 4/ 6 1016.2F SAPELO ISLAND 0400 81 CALM 1016.0 $$ ANZ835-935-AMZ111-154-330-350-352-354-370-450-454-472-180600- ...C-MAN AND BUOY OBSERVATIONS... STATION/POSITION TIME TEMP WIND PRES WAVE SWELL AIR SEA DIR/SP/G HT/PER HT/PER/DIR (UTC) (F) (DEG/KT/KT) (MB) (FT/S) (FT/S/D) BUOY 41004 0450 84 84 210/ 12/ 14 1015.1F 2/ 7 2/120/ 7 BUOY 41008 0450 85 85 200/ 10/ 12 1015.9F 1/ 3 FOLLY BEACH CMAN 0400 86 210/ 18/ 20 1016.2F CAPERS NEARSHORE 0408 83 86 230/ 14/ 17 1015.3F FRIPP NEARSHORE 0408 86 220/ 12/ 17 1015.4F STATION/POSITION TIME TEMP WIND PRES WAVE SWELL AIR SEA DIR/SP/G HT/PER HT/PER/DIR (UTC) (F) (DEG/KT/KT) (MB) (FT/S) (FT/S/D) 5E ST. MARYS GA 0430 85 N/A 1/ 8 FRYING PAN BUOY 0450 84 85 200/ 8/ 10 1015.5S 2/ 5 2/230/ 5 BUOY 41025 0450 84 86 170/ 12/ 14 1015.8F 2/ 8 2/ 60/ 8 CAPE LOOKOUT NC 0400 83 160/ 8/ 9 1015.7S BUOY 41002 0450 81 84 170/ 2/ 4 1017.4F 2/ 4 2/200/ 4 BUOY 41010 0450 86 86 210/ 8/ 10 1017.3F 2/ 8 2/120/ 8 ST AUGUSTINE FL 0500 77 82 240/ 5/ 6 1017.3F $$

USA.gov is the U.S. government's official web portal to all federal, state and local government web resources and services.